Helicity
62 101 76 87 121 145 129 155 145 114 73 53 39 29 49 52 62 65 8 -93 37 47 -21 32 31 -31 14 6 83 103 105 126 133 147 150 136 123 127 124 104 95 77 73 70
70 78 72 102 87 104 60 107 73 55 63 40 98 52 64 54 69 67 41 45 6 -1 -44 -31 6 -40 -10 28 74 99 128 109 118 119 132 130 128 119 115 102 83 78 78 87
72 62 64 75 60 68 62 68 68 90 46 76 63 143 76 73 69 52 12 100 49 13 4 -33 -44 -17 16 37 55 73 97 114 129 135 144 139 158 134 116 95 92 85 81 90
63 67 67 68 43 91 85 82 46 29 21 73 134 62 157 196 141 135 110 173 129 60 16 -16 -51 -63 -12 -15 -47 3 140 104 116 128 157 137 125 130 109 103 97 85 76 81
58 45 59 61 62 94 118 11 20 22 26 42 52 17 171 170 188 241 172 112 47 39 47 -1 -74 -116 -124 -83 -64 23 61 82 87 107 122 157 153 140 138 144 120 110 102 96
67 56 66 95 89 70 130 30 -3 24 16 81 54 -2 91 103 143 192 176 148 111 57 26 29 -12 -18 -45 -60 -75 -28 -4 39 92 95 92 111 147 157 156 145 127 129 130 130
79 64 42 68 38 33 25 54 34 26 41 60 9 1 1 41 118 70 108 140 126 101 62 28 -1 8 8 -3 -14 -17 -26 -2 22 98 107 103 122 104 125 136 137 129 127 134
121 66 67 42 50 46 23 15 44 53 39 52 13 54 32 25 60 89 64 74 129 157 96 65 51 23 9 12 39 52 40 3 30 6 53 93 127 129 97 90 104 118 124 128
133 87 54 64 42 57 25 25 37 33 31 59 46 47 51 90 131 140 129 142 156 163 148 126 101 96 72 61 35 25 34 43 58 42 -0 20 49 87 113 109 83 87 95 97
123 101 53 43 48 54 36 20 29 6 37 53 92 109 43 30 94 83 88 122 152 165 195 215 203 217 226 193 149 102 71 60 53 59 68 62 67 53 59 172 97 112 99 102
108 95 82 81 71 64 17 -0 18 28 25 52 59 58 22 -0 -16 4 93 154 189 201 187 208 238 263 273 284 295 247 192 128 87 56 61 61 70 86 97 96 115 180 111 82
73 122 118 89 55 30 87 57 40 58 44 68 82 81 76 37 42 84 187 264 287 257 250 220 217 234 290 325 326 308 304 273 206 146 111 64 25 28 43 53 65 80 115 107
83 73 80 70 69 90 65 46 51 58 76 89 107 79 125 63 82 106 170 253 321 341 336 307 285 258 247 264 308 330 329 334 312 287 248 203 162 129 83 56 60 65 72 81
100 106 130 136 110 121 92 124 121 139 172 136 148 196 177 134 72 135 161 194 221 264 298 262 229 228 225 214 215 249 279 237 229 244 241 226 216 183 165 137 105 84 75 95
88 78 99 84 76 125 131 66 114 160 187 169 110 156 147 104 129 95 131 155 168 191 194 188 199 176 163 169 179 174 168 172 162 158 154 146 131 116 108 99 84 83 94 101
76 83 69 43 39 74 83 77 97 140 126 112 181 189 157 128 155 169 144 159 171 163 129 109 113 125 114 94 84 87 85 88 67 81 93 82 82 86 76 68 68 61 58 75
108 131 121 78 88 72 98 87 119 144 197 171 187 231 227 228 269 215 184 170 160 124 100 105 87 50 25 16 1 18 49 44 44 61 60 38 29 46 51 52 44 32 39 41
188 185 128 126 100 95 162 178 217 310 270 263 306 285 218 212 217 139 169 170 119 107 99 76 46 58 50 46 36 28 7 -21 -28 1 32 58 48 52 68 43 47 38 21 29
86 159 134 141 117 161 231 241 209 212 231 281 266 227 215 210 141 30 112 97 47 12 -16 -44 -27 -1 44 65 87 64 68 105 98 37 27 55 88 87 99 120 98 81 61 58
130 133 190 221 194 156 223 207 213 188 227 279 218 208 208 183 215 152 109 61 32 4 -39 9 57 40 55 83 51 34 39 49 88 130 139 130 101 102 117 145 182 165 125 104
178 184 210 217 255 236 279 271 205 247 211 251 216 188 163 142 75 43 91 159 146 119 126 95 73 79 62 50 68 98 99 80 67 58 74 92 106 105 129 155 190 214 206 178
170 178 195 234 262 243 302 257 292 272 232 213 176 130 100 74 67 87 63 73 119 164 185 123 85 73 48 14 5 11 4 12 33 65 82 90 127 89 76 98 126 176 208 212
203 251 278 319 343 337 301 282 187 137 154 130 103 88 75 73 95 116 125 122 109 94 78 52 64 65 58 28 -9 -15 -23 -33 -6 30 26 61 96 137 118 87 86 101 130 171
266 312 355 326 361 308 284 220 192 196 174 115 121 127 127 130 116 119 98 87 84 67 42 45 21 17 40 48 42 25 10 -12 -26 -31 -5 59 75 104 134 130 122 119 128 135
305 328 351 381 363 319 295 259 205 171 157 125 125 123 126 109 94 93 96 78 64 45 45 32 26 14 24 26 28 30 23 9 15 -1 -7 1 37 119 153 144 133 149 161 158
368 374 351 365 308 282 252 196 146 159 162 156 131 120 101 86 75 68 72 64 48 37 25 18 25 18 17 16 26 18 18 7 22 30 -1 -8 1 68 86 110 97 54 53 91
Wind_Speed
48 54 68 64 55 48 47 49 51 45 44 41 7 20 18 20 26 18 32 44 34 37 38 42 38 36 30 32 40 45 51 48 43 42 46 49 52 50 49 49 48 44 38 34
54 58 55 52 52 55 51 52 57 45 46 47 25 23 15 15 23 16 27 29 31 31 29 30 39 44 37 39 38 48 47 52 50 46 44 49 49 52 52 53 51 46 43 40
54 52 51 58 57 65 55 56 50 48 44 50 44 30 19 9 11 21 35 21 18 20 22 25 31 34 39 40 29 28 39 48 49 48 41 41 44 48 53 54 52 50 48 46
46 47 55 61 60 57 61 46 43 46 54 62 43 27 21 14 24 33 29 18 18 18 20 22 24 23 32 40 39 34 35 50 54 51 49 48 51 55 56 55 54 54 52 51
54 53 59 64 56 50 49 38 47 47 54 53 47 35 18 21 27 33 39 32 24 21 20 21 19 19 24 33 29 26 23 45 54 55 56 56 55 57 54 53 55 55 54 53
44 38 46 49 41 46 42 40 44 47 47 60 42 41 20 22 28 35 40 39 33 32 27 29 28 29 33 32 31 29 28 31 44 54 59 62 63 60 58 57 57 57 56 56
48 44 45 50 51 45 68 51 42 49 53 51 38 52 15 24 35 39 35 39 40 38 34 35 36 36 36 36 33 32 31 29 35 50 60 63 66 65 66 64 62 60 60 60
59 49 53 52 50 45 55 53 45 46 49 43 36 45 35 23 37 44 46 47 46 45 46 48 49 46 44 44 30 24 27 30 29 36 48 59 63 64 66 68 67 66 68 66
53 43 35 45 43 44 44 51 39 41 39 43 41 43 38 19 39 47 48 51 53 53 52 53 52 49 48 47 45 46 35 27 32 39 53 50 58 73 68 67 67 66 69 71
38 39 32 37 36 43 48 42 42 38 39 42 39 38 31 18 26 43 48 49 53 54 55 56 55 52 51 49 49 47 46 45 46 45 38 34 35 45 64 70 71 75 74 67
38 34 32 37 36 36 45 47 44 39 37 37 35 31 31 34 37 45 45 48 52 53 54 53 52 52 51 51 51 50 50 50 50 48 48 49 52 50 51 51 60 59 69 70
34 31 29 36 30 29 35 42 39 38 30 29 28 25 29 35 43 48 52 53 55 55 57 57 56 56 56 56 57 56 56 55 55 56 55 55 56 59 64 67 71 68 68 66
36 37 35 36 35 31 30 35 35 35 28 21 24 26 28 38 45 51 53 55 58 60 62 62 63 64 64 63 63 61 61 61 61 60 59 58 56 57 59 63 67 73 75 74
31 31 27 21 20 32 25 27 25 27 24 24 15 24 18 29 44 57 57 62 63 65 67 68 69 70 69 70 72 71 70 67 67 67 66 65 65 65 66 66 67 65 67 69
32 33 32 25 20 27 20 16 23 19 20 32 34 24 32 41 45 51 50 57 64 72 75 77 78 79 80 81 81 80 77 77 77 76 75 74 74 73 72 71 69 68 67 66
36 36 44 45 36 36 34 28 30 32 33 30 33 36 44 47 59 64 60 62 69 75 78 81 83 85 87 89 89 89 89 91 90 88 87 84 83 82 79 77 76 74 70 67
38 37 42 40 47 52 43 40 40 38 41 41 44 41 52 58 67 67 60 68 75 81 84 87 88 90 92 94 95 97 97 96 96 96 97 95 93 92 88 84 83 80 77 73
32 32 36 42 52 45 40 48 40 40 44 44 43 49 53 60 67 57 59 74 83 87 89 90 91 94 94 95 95 99 100 100 101 100 101 100 100 100 99 95 92 88 81 77
16 24 38 42 44 52 47 49 49 53 54 51 52 56 61 69 67 48 69 81 82 85 87 88 91 92 94 96 99 100 101 101 104 105 106 105 106 109 108 106 101 95 90 83
27 24 33 41 54 61 49 47 52 45 60 50 54 61 71 75 80 69 84 84 84 85 85 89 91 91 92 96 97 99 100 101 103 105 108 108 109 110 110 108 107 102 96 91
38 39 39 44 54 54 50 53 46 61 61 54 60 65 70 74 72 81 84 85 85 86 88 88 88 90 92 93 96 99 101 102 104 105 106 106 104 106 108 111 108 100 99 94
45 46 46 48 57 67 53 45 54 52 53 60 65 68 71 74 76 78 79 82 85 88 90 87 88 88 89 90 93 97 99 101 103 107 108 109 108 103 101 103 103 98 99 96
51 43 50 48 53 44 51 52 52 55 59 63 65 67 69 72 75 78 81 81 82 84 85 84 87 89 89 90 92 97 101 103 106 109 109 109 108 105 102 100 96 93 93 92
46 47 52 55 51 50 51 54 57 59 59 61 62 66 68 73 75 77 79 81 82 80 80 82 83 86 90 91 92 94 99 103 106 110 110 108 104 101 98 93 86 83 86 83
52 54 56 58 55 51 53 57 59 58 58 61 63 65 68 71 74 75 78 78 78 78 79 80 83 85 88 89 91 94 97 103 107 109 108 104 99 97 95 86 76 79 79 76
54 56 60 64 53 57 58 54 55 59 63 65 66 68 66 69 72 72 73 72 74 77 80 80 82 84 88 89 91 92 95 98 104 108 107 104 100 96 90 86 78 72 71 69
Wind_Direction
26 23 17 19 24 27 27 30 31 39 47 52 208 281 288 288 322 257 233 231 253 238 242 250 254 251 260 259 239 244 245 245 245 247 245 247 247 248 249 251 256 257 257 256
20 20 24 24 29 28 34 36 37 46 54 68 104 358 321 309 320 286 304 258 241 250 252 257 254 257 269 269 262 252 245 243 245 249 252 251 250 250 251 255 257 257 258 258
18 22 25 25 28 26 34 37 41 52 62 79 108 17 353 314 337 333 329 299 266 259 263 275 271 278 276 270 281 268 257 245 247 250 251 255 252 255 255 257 259 260 261 260
24 25 23 24 27 30 31 43 54 62 70 69 101 20 352 346 6 1 345 306 273 283 297 294 281 301 276 275 281 276 277 252 248 249 249 252 253 254 257 259 260 261 262 263
18 19 20 23 28 36 34 55 63 70 72 79 86 24 324 338 351 351 355 357 339 317 314 307 323 316 331 278 286 300 292 259 254 250 251 255 258 259 262 263 264 264 265 266
29 36 35 32 38 42 38 65 69 71 77 65 83 100 329 335 333 337 349 355 349 339 309 316 327 333 318 289 296 308 327 291 267 258 254 256 259 261 262 264 265 266 267 268
28 36 36 34 35 46 31 52 62 60 63 70 88 81 296 314 333 337 331 338 343 343 340 335 321 329 323 311 313 320 320 335 295 266 259 259 260 262 264 265 267 268 270 270
21 29 30 32 38 42 44 51 60 60 61 74 88 88 119 289 329 342 350 348 346 345 344 346 342 339 322 321 341 344 326 322 317 303 280 265 263 266 267 268 269 270 271 272
25 31 50 42 49 52 50 47 67 71 79 75 81 94 112 290 325 337 339 349 349 348 349 349 349 347 343 339 330 312 328 330 313 305 282 282 275 267 269 272 273 275 274 273
40 34 58 47 59 58 52 57 58 66 66 64 73 81 92 117 307 332 347 348 350 355 355 352 351 347 346 341 339 339 337 329 320 317 317 313 306 292 276 274 277 273 276 278
42 50 43 46 52 59 48 47 53 63 66 60 61 62 74 65 63 8 346 347 346 344 349 346 339 338 339 341 340 334 327 325 325 321 314 310 303 302 297 295 287 283 281 280
47 50 45 41 62 72 62 46 49 47 65 64 64 57 62 49 33 20 1 351 344 345 342 339 341 341 340 336 335 334 329 326 321 317 315 311 304 299 293 289 284 284 281 281
24 27 32 47 52 54 47 44 49 48 53 59 60 54 50 25 5 356 354 350 348 345 342 343 341 338 337 336 332 329 327 325 324 322 318 315 315 311 302 296 291 284 282 281
21 19 20 28 29 19 17 22 30 27 32 30 29 28 48 24 2 351 345 337 334 334 333 333 333 333 333 331 327 325 324 323 318 317 315 314 314 310 308 306 300 298 292 288
14 5 5 0 357 356 353 355 0 355 352 347 359 1 356 351 355 356 354 345 339 334 331 330 327 326 326 324 324 321 318 316 316 313 312 310 309 308 306 305 305 302 298 295
1 355 350 346 357 358 354 350 341 336 337 331 333 336 339 334 331 332 340 340 336 333 331 329 328 326 325 323 321 319 315 312 311 308 306 306 306 305 304 303 302 301 300 298
343 346 349 346 346 342 345 352 349 348 344 337 330 335 330 324 324 328 333 330 328 328 327 326 325 324 323 321 318 315 314 313 310 306 303 303 303 301 301 301 300 298 297 297
335 340 342 337 338 339 350 349 347 341 338 337 335 332 330 327 325 327 331 327 324 323 324 323 322 321 321 320 320 317 313 310 308 306 304 303 301 299 298 297 296 296 296 295
338 338 337 337 334 331 330 335 333 328 326 331 327 326 327 325 325 323 326 326 324 323 322 322 322 322 322 321 319 317 315 313 309 305 303 301 298 296 295 292 292 293 292 291
351 339 331 332 326 326 335 335 334 332 319 330 329 326 323 324 318 319 323 324 324 324 324 324 324 324 323 322 321 319 317 315 312 310 306 303 298 295 293 291 289 288 288 286
338 332 316 317 320 324 331 330 333 321 322 329 328 326 324 321 319 318 321 322 324 324 324 324 325 325 325 326 326 323 321 319 316 312 310 307 303 299 294 290 288 287 286 284
326 327 324 325 319 317 335 332 323 328 328 326 325 324 322 321 321 321 323 323 324 324 324 326 326 327 328 329 328 326 324 322 320 318 313 310 306 302 299 294 289 285 284 281
322 323 324 322 322 331 334 331 330 328 324 324 323 324 323 322 322 323 323 324 325 324 325 326 327 327 329 331 331 328 328 327 324 322 318 313 309 305 301 296 291 287 284 279
328 330 321 320 323 323 326 329 328 328 326 326 326 325 325 323 324 324 324 324 325 327 327 327 327 327 327 330 331 331 331 331 329 326 323 320 315 310 305 299 292 288 287 281
324 326 322 319 323 323 324 326 328 328 330 329 328 327 326 326 325 326 326 327 327 328 328 328 327 326 326 329 331 332 333 334 333 331 329 325 321 315 310 304 295 291 288 283
327 323 320 319 325 323 324 328 331 329 329 329 328 328 329 328 327 328 328 329 329 328 327 327 328 327 325 327 329 331 333 334 335 334 330 328 322 318 316 309 300 296 293 289